This is the latest recevied weather packets stored in our database for station/object DL9SEC-13. If no packets are shown the sender has not sent any weather packets the latest 10 day(s).
| Time | Temp. | Humidity | Pressure | Rain* | Wind** | Luminosity | Snow |
|---|---|---|---|---|---|---|---|
| 1777882204 | 21.67° C | 44% | 1018 hPa | 0 mm | - | - | - |
| 1777881303 | 20° C | 46% | 1018 hPa | 0 mm | - | - | - |
| 1777880403 | 18.89° C | 48% | 1017.9 hPa | 0 mm | - | - | - |
| 1777879503 | 18.33° C | 52% | 1017.9 hPa | 0 mm | - | - | - |
| 1777878602 | 17.78° C | 54% | 1018 hPa | 0 mm | - | - | - |
| 1777877704 | 16.11° C | 56% | 1017.9 hPa | 0 mm | - | - | - |
| 1777876804 | 16.11° C | 57% | 1017.9 hPa | 0 mm | - | - | - |
| 1777875902 | 14.44° C | 61% | 1018.1 hPa | 0 mm | - | - | - |
| 1777875003 | 13.89° C | 65% | 1018 hPa | 0 mm | - | - | - |
| 1777874103 | 13.33° C | 67% | 1018 hPa | 0 mm | - | - | - |
| 1777873204 | 13.33° C | 67% | 1018.1 hPa | 0 mm | - | - | - |
| 1777872303 | 12.78° C | 69% | 1018.1 hPa | 0 mm | - | - | - |
| 1777871404 | 12.22° C | 69% | 1018.1 hPa | 0 mm | - | - | - |
| 1777870502 | 11.67° C | 72% | 1018.1 hPa | 0 mm | - | - | - |
| 1777869603 | 11.67° C | 73% | 1018 hPa | 0 mm | - | - | - |
| 1777868703 | 11.11° C | 73% | 1018 hPa | 0 mm | - | - | - |
| 1777867803 | 11.67° C | 72% | 1017.9 hPa | 0 mm | - | - | - |
| 1777866903 | 12.22° C | 69% | 1017.9 hPa | 0 mm | - | - | - |
| 1777866003 | 12.22° C | 67% | 1018 hPa | 0 mm | - | - | - |
| 1777865103 | 12.22° C | 67% | 1017.9 hPa | 0 mm | - | - | - |
| 1777864202 | 12.22° C | 66% | 1017.9 hPa | 0 mm | - | - | - |
| 1777863302 | 12.22° C | 66% | 1017.9 hPa | 0 mm | - | - | - |
| 1777862403 | 12.78° C | 65% | 1017.9 hPa | 0 mm | - | - | - |
| 1777861503 | 12.78° C | 64% | 1017.9 hPa | 0 mm | - | - | - |
| 1777860603 | 12.78° C | 63% | 1018 hPa | 0 mm | - | - | - |
* Rain latest hour (hover to see other rain measurements)
** Current wind speed in m/s (hover to see current wind gust speed)